Location: Mound City (historical)
(34.0564°N, 117.2656°W)
Time: 03:03:58
(UTC+00:00)

Thor Agena Rocket - Pass Details

Date: 08 September 2024
Orbit: 757 x 804 km, 99.1° (Epoch: 03 October)

Event Time Altitude Azimuth Distance (km) Brightness Sun altitude
Rises 11:57:24 0° 13° (NNE) 3,248 7.2 -19.0°
Reaches altitude 10° 11:59:42 10° 14° (NNE) 2,325 6.4 -18.6°
Maximum altitude 12:04:50 89° 98° (E) 786 3.5 -17.6°
Drops below altitude 10° 12:10:01 10° 194° (SSW) 2,342 5.7 -16.5°
Enters shadow 12:10:54 - 194° (SSW) 2,694 6.0 -16.4°
